Location: Cabizuela
(40.9009°N, 4.8021°W)
Time: 21:34:35
(UTC+00:00)

Daily predictions for brighter satellites

Satellite Brightness Start Highest point End
(mag) Time Altitude Azimuth Time Altitude Azimuth Time Altitude Azimuth
Cosmos 1953 2.9 17:41:40 10° NNE 17:45:00 30° ENE 17:48:17 10° SE
NOSS 0 Rocket 4.0 17:40:17 10° SSW 17:46:25 82° ESE 17:52:36 10° NNE
CZ-2D R/B 3.6 17:42:29 10° SSE 17:46:44 86° WSW 17:51:00 10° NNW
Lacrosse 5 3.0 17:42:10 10° NW 17:47:06 51° SW 17:52:01 10° SSE
SL-19 R/B 4.5 17:41:40 10° SSE 17:47:44 89° ENE 17:53:32 10° NNW
SKYMED 2 4.4 17:47:59 10° NNE 17:51:53 32° E 17:55:46 10° SSE
ATLAS 2AS CENTAUR R/B 3.9 17:48:23 10° NNW 17:53:26 21° NNE 17:58:23 10° E
COSMOS 2428 3.5 17:48:15 10° SW 17:53:48 53° WNW 17:59:23 10° NNE
ACS3 Solar Sail 2.6 17:49:19 10° SE 17:54:44 30° ENE 18:00:09 10° N
IGS 5A 3.4 17:51:33 10° SSE 17:55:29 57° ENE 17:59:27 10° N
USA 267 4.0 17:51:01 10° SSE 17:57:25 58° SW 18:03:52 10° NW
Cosmos 990 Rocket 4.0 17:54:16 10° NNW 17:59:32 80° ENE 18:04:45 10° SSE
Cosmos 1174 4.1 17:57:19 10° NNW 18:00:59 47° ENE 18:05:27 10° SE
Dummy Sat-02 4.5 17:58:11 10° S 18:01:48 82° E 18:05:27 10° N
AQUARIUS 4.1 17:57:59 10° SSE 18:02:24 82° ENE 18:06:51 10° N
Cosmos 1634 Rocket 4.3 17:57:06 10° N 18:03:25 75° W 18:09:40 10° S
DNEPR-1 R/B 4.1 18:00:27 10° NNW 18:04:54 39° NE 18:08:52 10° ESE
Delta 2 Rocket 4.2 18:05:59 10° SW 18:08:50 28° S 18:11:36 10° ESE
Okean 3 3.4 18:06:47 10° S 18:10:51 89° WSW 18:15:00 10° N
Meteor 1-31 Rocket 3.6 18:08:07 10° SE 18:11:04 25° ENE 18:14:01 10° NNE
Cosmos 1707 Rocket 3.5 18:07:12 10° S 18:11:38 83° E 18:16:05 10° N
Meteor 1-16 Rocket 4.2 18:06:08 10° N 18:11:40 89° E 18:17:20 10° S
Okean 2 3.2 18:10:45 10° S 18:14:40 79° E 18:18:39 10° N
EO 1 Delta rocket 4.1 18:11:17 10° NNE 18:15:45 45° E 18:20:18 10° S
Cosmos 2142 Rocket 4.5 18:12:15 10° N 18:18:30 79° E 18:24:48 10° S
CZ-4 R/B 4.4 18:14:50 10° SSE 18:18:46 57° ENE 18:22:42 10° N
Cosmos 1937 Rocket 4.0 18:15:58 10° N 18:20:42 36° ENE 18:25:27 10° SE
BREEZE-M DEB (TANK) 4.4 18:03:46 10° WSW 18:24:48 76° NNW 18:28:55 17° NE
Cosmos 1825 4.0 18:23:10 10° SE 18:23:11 10° SE 18:23:11 10° SE
Cosmos 1862 Rocket 3.9 18:25:14 10° SSW 18:29:33 69° W 18:33:57 10° N
Cosmos 1943 Rocket 2.1 18:23:54 10° NNW 18:29:35 86° ENE 18:35:11 10° SSE
RESURS DK-1 2.2 18:26:08 10° NNW 18:30:10 74° ENE 18:34:11 10° SSE
Cosmos 2237 Rocket 2.6 18:25:04 10° SSW 18:30:42 66° WNW 18:36:24 10° NNE
BlueWalker 3 3.6 18:30:54 10° NNW 18:33:19 17° NNE 18:33:53 16° NNE
CZ-4B R/B 3.7 18:33:16 10° SSE 18:36:48 51° ENE 18:40:16 10° N
ISS -2.2 18:34:25 10° W 18:37:20 27° NNW 18:39:01 18° NNE
NOAA 6 4.0 18:33:39 10° SSE 18:38:39 60° ENE 18:43:42 10° N
COSMO-SKYMED 1 2.8 18:35:44 10° N 18:40:05 74° WNW 18:44:24 10° SSW
Cosmos 2344 4.4 18:33:53 10° WSW 18:41:04 42° NW 18:47:58 10° NNE
Cosmos 2278 Rocket 3.0 18:38:24 10° NNW 18:43:56 55° WSW 18:49:24 10° S
YAOGAN 1 2.5 18:43:09 10° SSE 18:47:20 61° ENE 18:51:34 10° N
CZ-4C R/B 2.2 18:44:44 10° SW 18:48:54 58° NW 18:53:05 15° NNE
Nadezhda 4 Rocket 4.0 18:44:27 10° S 18:50:34 86° W 18:56:45 10° N
ATLAS 5 CENTAUR R/B 0.7 18:50:36 10° SW 18:53:44 79° NW 18:54:38 44° NNE
YAOGAN 11 4.0 18:51:31 22° NNE 18:54:07 57° E 18:58:20 10° S
Landsat 7 4.1 18:50:27 10° S 18:55:06 69° WSW 18:59:48 10° NNW
Cosmos 2195 Rocket 4.4 18:49:01 10° S 18:55:09 67° E 19:01:15 10° NNE
Meteor 1-24 Rocket 4.3 18:49:57 10° SSE 18:55:17 37° E 18:58:08 24° NE
Cosmos 1703 Rocket 3.4 18:53:54 10° S 18:58:19 74° E 19:02:12 14° NNE
SPOT 1/Viking Rocket 3.6 18:53:37 10° SSE 18:58:38 53° ENE 19:03:38 10° N
Resurs 1-3 3.6 18:58:56 10° SSE 19:03:08 55° ENE 19:07:21 10° N
Meteor 2-5 Rocket 4.0 19:00:31 10° SSE 19:05:52 43° E 19:07:38 34° NE
Cosmos 1703 3.4 19:05:11 10° SSW 19:08:41 63° W 19:10:32 25° N
Cosmos 841 Rocket 4.2 19:04:42 10° SW 19:09:49 53° WNW 19:14:58 10° N
Cosmos 1898 Rocket 4.2 19:07:34 10° NNW 19:12:44 55° WSW 19:17:54 10° S
Okean 1-7 4.4 19:09:42 10° SW 19:13:41 37° WNW 19:17:41 10° N
Cosmos 1656 Rocket 3.7 19:08:44 10° NNW 19:14:04 50° ENE 19:14:50 47° E
Cosmos 1900 4.5 19:11:27 10° S 19:15:59 49° ESE 19:15:59 49° ESE
Cosmos 1814 Rocket 4.0 19:14:43 10° S 19:19:52 56° ESE 19:20:11 55° E
SL-16 R/B 2.1 19:14:15 10° SSW 19:19:55 89° WNW 19:22:50 30° NNE
Cosmos 1437 Rocket 3.8 19:20:27 10° S 19:22:39 34° S 19:22:39 34° S
CBERS 1 LM4 rocket 4.3 19:32:04 31° SSE 19:34:34 83° ENE 19:39:50 10° NNW
Cosmos 1818 3.4 19:31:00 10° NNW 19:36:29 85° ENE 19:37:01 73° SE
Cosmos 1092 Rocket 4.1 19:30:26 10° SSW 19:36:34 75° W 19:42:48 10° N
ACS3 Solar Sail 2.9 19:31:55 10° S 19:37:59 46° W 19:44:08 10° NNW
Cosmos 2369 Rocket 3.0 19:35:11 10° NNW 19:38:45 37° N 19:38:45 37° N
ATLAS 2AS CENTAUR R/B 2.5 19:38:35 10° NNW 19:45:23 82° NE 19:46:36 62° SE
Cosmos 839 Rocket 4.1 19:44:24 10° SW 19:51:10 77° WNW 19:52:33 56° NNE
Cosmos 1867 4.4 19:51:27 10° SSW 19:55:00 42° SSW 19:55:00 42° SSW
Cosmos 2297 4.3 19:58:06 10° NNW 20:02:16 50° NNW 20:02:16 50° NNW
